Time,TemperatureF,DewpointF,PressureIn,WindDirection,WindDirectionDegrees,WindSpeedMPH,WindSpeedGustMPH,Humidity,HourlyPrecipIn,Conditions,Clouds,dailyrainin,SoftwareType,DateUTC
2013-03-13 00:03:00,57.0,56.0,30.03,WNW,290,3.0,7.0,98,99.99,,,-99.99,,2013-03-13 04:03:00,
2013-03-13 00:13:00,57.0,56.0,30.03,WNW,290,3.0,7.0,98,99.99,,,-99.99,,2013-03-13 04:13:00,
2013-03-13 00:22:00,56.0,55.0,30.03,WNW,287,5.0,8.0,98,99.99,,,-99.99,,2013-03-13 04:22:00,
2013-03-13 00:32:00,56.0,55.0,30.03,WNW,288,4.0,8.0,98,99.99,,,-99.99,,2013-03-13 04:32:00,
2013-03-13 00:43:00,56.0,55.0,30.03,WNW,288,4.0,8.0,98,99.99,,,-99.99,,2013-03-13 04:43:00,
2013-03-13 00:53:00,56.0,55.0,30.03,North,6,4.0,7.0,98,99.99,,,-99.99,,2013-03-13 04:53:00,
2013-03-13 01:02:00,56.0,55.0,30.03,WNW,291,4.0,6.0,98,99.99,,,-99.99,,2013-03-13 05:02:00,
2013-03-13 01:12:00,56.0,55.0,30.03,WNW,291,4.0,6.0,98,99.99,,,-99.99,,2013-03-13 05:12:00,
2013-03-13 01:22:00,56.0,55.0,30.03,WNW,290,4.0,8.0,98,99.99,,,-99.99,,2013-03-13 05:22:00,
2013-03-13 01:32:00,55.0,55.0,30.03,WNW,293,4.0,8.0,99,99.99,,,-99.99,,2013-03-13 05:32:00,
2013-03-13 01:42:00,55.0,55.0,30.03,WNW,293,4.0,8.0,99,99.99,,,-99.99,,2013-03-13 05:42:00,
2013-03-13 01:52:00,56.0,56.0,30.03,West,276,3.0,6.0,99,99.99,,,-99.99,,2013-03-13 05:52:00,
2013-03-13 02:02:00,56.0,56.0,30.03,WNW,290,4.0,8.0,99,99.99,,,-99.99,,2013-03-13 06:02:00,
2013-03-13 02:12:00,56.0,56.0,30.03,WNW,290,4.0,8.0,99,99.99,,,-99.99,,2013-03-13 06:12:00,
2013-03-13 02:23:00,56.0,55.0,30.03,WNW,287,4.0,8.0,98,99.99,,,-99.99,,2013-03-13 06:23:00,
2013-03-13 02:32:00,56.0,56.0,30.03,NNW,329,4.0,6.0,99,99.99,,,-99.99,,2013-03-13 06:32:00,
2013-03-13 02:42:00,56.0,56.0,30.03,NNW,329,4.0,6.0,99,99.99,,,-99.99,,2013-03-13 06:42:00,
2013-03-13 02:52:00,55.0,55.0,30.04,NW,316,5.0,8.0,99,99.99,,,-99.99,,2013-03-13 06:52:00,
2013-03-13 03:03:00,55.0,55.0,30.03,NW,309,4.0,7.0,99,99.99,,,-99.99,,2013-03-13 07:03:00,
2013-03-13 03:12:00,55.0,55.0,30.03,NW,309,4.0,7.0,99,99.99,,,-99.99,,2013-03-13 07:12:00,
2013-03-13 03:22:00,55.0,54.0,30.03,NW,321,4.0,7.0,98,99.99,,,-99.99,,2013-03-13 07:22:00,
2013-03-13 03:32:00,55.0,54.0,30.03,NW,326,4.0,6.0,97,99.99,,,-99.99,,2013-03-13 07:32:00,
2013-03-13 03:42:00,55.0,54.0,30.03,NW,326,4.0,6.0,97,99.99,,,-99.99,,2013-03-13 07:42:00,
2013-03-13 03:53:00,54.0,53.0,30.03,NW,326,3.0,6.0,97,99.99,,,-99.99,,2013-03-13 07:53:00,
2013-03-13 04:03:00,54.0,53.0,30.03,NNW,339,3.0,6.0,96,99.99,,,-99.99,,2013-03-13 08:03:00,
2013-03-13 04:12:00,54.0,53.0,30.03,NNW,339,3.0,6.0,96,99.99,,,-99.99,,2013-03-13 08:12:00,
2013-03-13 04:22:00,53.0,52.0,30.02,North,350,3.0,7.0,96,99.99,,,-99.99,,2013-03-13 08:22:00,
2013-03-13 04:32:00,53.0,52.0,30.03,NW,326,3.0,5.0,96,99.99,,,-99.99,,2013-03-13 08:32:00,
2013-03-13 04:43:00,53.0,52.0,30.03,NW,326,3.0,5.0,96,99.99,,,-99.99,,2013-03-13 08:43:00,
2013-03-13 04:54:00,53.0,51.0,30.04,North,359,4.0,8.0,93,99.99,,,-99.99,,2013-03-13 08:54:00,
2013-03-13 05:02:00,53.0,51.0,30.04,North,359,4.0,8.0,93,99.99,,,-99.99,,2013-03-13 09:02:00,
2013-03-13 05:12:00,53.0,51.0,30.04,North,359,4.0,8.0,93,99.99,,,-99.99,,2013-03-13 09:12:00,
2013-03-13 05:22:00,53.0,51.0,30.03,NNW,343,4.0,7.0,94,99.99,,,-99.99,,2013-03-13 09:22:00,
2013-03-13 05:32:00,53.0,52.0,30.03,NNW,333,4.0,7.0,95,99.99,,,-99.99,,2013-03-13 09:32:00,
2013-03-13 05:42:00,53.0,52.0,30.03,NNW,333,4.0,7.0,95,99.99,,,-99.99,,2013-03-13 09:42:00,
2013-03-13 05:52:00,53.0,52.0,30.05,NNW,335,4.0,8.0,95,99.99,,,-99.99,,2013-03-13 09:52:00,
2013-03-13 06:02:00,53.0,52.0,30.04,NW,312,4.0,6.0,96,99.99,,,-99.99,,2013-03-13 10:02:00,
2013-03-13 06:12:00,53.0,52.0,30.04,NW,312,4.0,6.0,96,99.99,,,-99.99,,2013-03-13 10:12:00,
2013-03-13 06:22:00,53.0,52.0,30.04,NNW,329,3.0,6.0,96,99.99,,,-99.99,,2013-03-13 10:22:00,
2013-03-13 06:32:00,52.0,51.0,30.05,North,352,4.0,7.0,96,99.99,,,-99.99,,2013-03-13 10:32:00,
2013-03-13 06:42:00,52.0,51.0,30.05,North,352,4.0,7.0,96,99.99,,,-99.99,,2013-03-13 10:42:00,
2013-03-13 06:52:00,52.0,51.0,30.06,NNW,343,4.0,6.0,95,99.99,,,-99.99,,2013-03-13 10:52:00,
2013-03-13 07:02:00,51.0,50.0,30.07,NW,325,3.0,6.0,95,99.99,,,-99.99,,2013-03-13 11:02:00,
2013-03-13 07:12:00,51.0,50.0,30.07,NW,325,3.0,6.0,95,99.99,,,-99.99,,2013-03-13 11:12:00,
2013-03-13 07:22:00,51.0,48.0,30.08,NNW,335,4.0,7.0,91,99.99,,,-99.99,,2013-03-13 11:22:00,
2013-03-13 07:32:00,52.0,49.0,30.09,North,1,5.0,8.0,88,99.99,,,-99.99,,2013-03-13 11:32:00,
2013-03-13 07:42:00,52.0,49.0,30.09,North,1,5.0,8.0,88,99.99,,,-99.99,,2013-03-13 11:42:00,
2013-03-13 07:53:00,52.0,48.0,30.09,NNW,335,4.0,9.0,87,99.99,,,-99.99,,2013-03-13 11:53:00,
2013-03-13 08:02:00,52.0,48.0,30.09,NNW,335,5.0,8.0,86,99.99,,,-99.99,,2013-03-13 12:02:00,
2013-03-13 08:12:00,52.0,48.0,30.09,NNW,335,5.0,8.0,86,99.99,,,-99.99,,2013-03-13 12:12:00,
2013-03-13 08:22:00,52.0,49.0,30.10,North,354,4.0,8.0,88,99.99,,,-99.99,,2013-03-13 12:22:00,
2013-03-13 08:32:00,51.0,47.0,30.10,NW,326,5.0,9.0,86,99.99,,,-99.99,,2013-03-13 12:32:00,
2013-03-13 08:42:00,51.0,47.0,30.10,NW,326,5.0,9.0,86,99.99,,,-99.99,,2013-03-13 12:42:00,
2013-03-13 08:53:00,52.0,48.0,30.11,NNW,345,6.0,11.0,87,99.99,,,-99.99,,2013-03-13 12:53:00,
2013-03-13 09:02:00,53.0,48.0,30.11,NNW,338,6.0,12.0,84,99.99,,,-99.99,,2013-03-13 13:02:00,
2013-03-13 09:12:00,53.0,48.0,30.11,NNW,338,6.0,12.0,84,99.99,,,-99.99,,2013-03-13 13:12:00,
2013-03-13 09:22:00,54.0,49.0,30.11,NNW,340,6.0,11.0,83,99.99,,,-99.99,,2013-03-13 13:22:00,
2013-03-13 09:33:00,55.0,49.0,30.13,NNW,329,6.0,12.0,79,99.99,,,-99.99,,2013-03-13 13:33:00,
2013-03-13 09:43:00,55.0,49.0,30.13,NNW,329,6.0,12.0,79,99.99,,,-99.99,,2013-03-13 13:43:00,
2013-03-13 09:53:00,56.0,47.0,30.13,NNE,13,10.0,17.0,71,99.99,,,-99.99,,2013-03-13 13:53:00,
2013-03-13 10:02:00,57.0,47.0,30.13,NNW,347,7.0,14.0,69,99.99,,,-99.99,,2013-03-13 14:02:00,
2013-03-13 10:12:00,57.0,47.0,30.13,NNW,347,7.0,14.0,69,99.99,,,-99.99,,2013-03-13 14:12:00,
2013-03-13 10:22:00,58.0,46.0,30.13,North,357,9.0,17.0,64,99.99,,,-99.99,,2013-03-13 14:22:00,
2013-03-13 10:33:00,59.0,46.0,30.14,North,356,7.0,15.0,62,99.99,,,-99.99,,2013-03-13 14:33:00,
2013-03-13 10:42:00,59.0,46.0,30.14,North,356,7.0,15.0,62,99.99,,,-99.99,,2013-03-13 14:42:00,
2013-03-13 10:53:00,60.0,47.0,30.14,NNW,347,8.0,15.0,61,99.99,,,-99.99,,2013-03-13 14:53:00,
2013-03-13 11:03:00,61.0,45.0,30.14,North,0,8.0,14.0,55,99.99,,,-99.99,,2013-03-13 15:03:00,
2013-03-13 11:12:00,61.0,45.0,30.14,North,0,8.0,14.0,55,99.99,,,-99.99,,2013-03-13 15:12:00,
2013-03-13 11:22:00,62.0,46.0,30.15,NW,322,5.0,10.0,55,99.99,,,-99.99,,2013-03-13 15:22:00,
2013-03-13 11:32:00,63.0,43.0,30.16,North,350,6.0,11.0,48,99.99,,,-99.99,,2013-03-13 15:32:00,
2013-03-13 11:42:00,63.0,43.0,30.16,North,350,6.0,11.0,48,99.99,,,-99.99,,2013-03-13 15:42:00,
2013-03-13 11:53:00,64.0,42.0,30.15,North,1,7.0,13.0,44,99.99,,,-99.99,,2013-03-13 15:53:00,
2013-03-13 12:03:00,65.0,44.0,30.14,NNW,343,7.0,13.0,47,99.99,,,-99.99,,2013-03-13 16:03:00,
2013-03-13 12:12:00,65.0,44.0,30.14,NNW,343,7.0,13.0,47,99.99,,,-99.99,,2013-03-13 16:12:00,
2013-03-13 12:22:00,66.0,42.0,30.14,NNW,335,8.0,15.0,42,99.99,,,-99.99,,2013-03-13 16:22:00,
2013-03-13 12:32:00,67.0,43.0,30.15,North,6,7.0,14.0,41,99.99,,,-99.99,,2013-03-13 16:32:00,
2013-03-13 12:42:00,67.0,43.0,30.15,North,6,7.0,14.0,41,99.99,,,-99.99,,2013-03-13 16:42:00,
2013-03-13 12:52:00,68.0,41.0,30.15,North,1,9.0,18.0,38,99.99,,,-99.99,,2013-03-13 16:52:00,
2013-03-13 13:02:00,69.0,41.0,30.14,North,11,9.0,16.0,36,99.99,,,-99.99,,2013-03-13 17:02:00,
2013-03-13 13:12:00,69.0,41.0,30.14,North,11,9.0,16.0,36,99.99,,,-99.99,,2013-03-13 17:12:00,
2013-03-13 13:22:00,69.0,39.0,30.14,NNW,345,7.0,13.0,34,99.99,,,-99.99,,2013-03-13 17:22:00,
2013-03-13 13:32:00,70.0,36.0,30.14,NW,321,7.0,14.0,29,99.99,,,-99.99,,2013-03-13 17:32:00,
2013-03-13 13:42:00,70.0,36.0,30.14,NW,321,7.0,14.0,29,99.99,,,-99.99,,2013-03-13 17:42:00,
2013-03-13 13:53:00,71.0,40.0,30.14,North,6,7.0,13.0,33,99.99,,,-99.99,,2013-03-13 17:53:00,
2013-03-13 14:02:00,71.0,38.0,30.13,North,359,6.0,14.0,30,99.99,,,-99.99,,2013-03-13 18:02:00,
2013-03-13 14:12:00,71.0,38.0,30.13,North,359,6.0,14.0,30,99.99,,,-99.99,,2013-03-13 18:12:00,
2013-03-13 14:22:00,72.0,38.0,30.12,North,356,6.0,11.0,29,99.99,,,-99.99,,2013-03-13 18:22:00,
2013-03-13 14:33:00,72.0,40.0,30.11,North,359,8.0,14.0,31,99.99,,,-99.99,,2013-03-13 18:33:00,
2013-03-13 14:42:00,72.0,40.0,30.11,North,359,8.0,14.0,31,99.99,,,-99.99,,2013-03-13 18:42:00,
2013-03-13 14:52:00,73.0,39.0,30.10,NNW,336,9.0,17.0,29,99.99,,,-99.99,,2013-03-13 18:52:00,
2013-03-13 15:02:00,73.0,41.0,30.10,NNW,335,9.0,17.0,31,99.99,,,-99.99,,2013-03-13 19:02:00,
2013-03-13 15:12:00,73.0,41.0,30.10,NNW,335,9.0,17.0,31,99.99,,,-99.99,,2013-03-13 19:12:00,
2013-03-13 15:22:00,73.0,40.0,30.10,North,350,9.0,18.0,30,99.99,,,-99.99,,2013-03-13 19:22:00,
2013-03-13 15:32:00,73.0,41.0,30.10,NNW,346,9.0,17.0,31,99.99,,,-99.99,,2013-03-13 19:32:00,
2013-03-13 15:53:00,74.0,40.0,30.09,North,11,8.0,17.0,29,99.99,,,-99.99,,2013-03-13 19:53:00,
2013-03-13 16:02:00,73.0,39.0,30.08,North,0,9.0,16.0,29,99.99,,,-99.99,,2013-03-13 20:02:00,
2013-03-13 16:12:00,73.0,39.0,30.08,North,0,9.0,16.0,29,99.99,,,-99.99,,2013-03-13 20:12:00,
2013-03-13 16:22:00,73.0,40.0,30.07,North,349,8.0,13.0,30,99.99,,,-99.99,,2013-03-13 20:22:00,
2013-03-13 16:32:00,74.0,42.0,30.07,North,4,5.0,10.0,32,99.99,,,-99.99,,2013-03-13 20:32:00,
2013-03-13 16:42:00,74.0,42.0,30.07,North,4,5.0,10.0,32,99.99,,,-99.99,,2013-03-13 20:42:00,
2013-03-13 16:52:00,73.0,40.0,30.06,NNW,343,6.0,10.0,30,99.99,,,-99.99,,2013-03-13 20:52:00,
2013-03-13 17:02:00,73.0,40.0,30.06,NNE,14,6.0,10.0,30,99.99,,,-99.99,,2013-03-13 21:02:00,
2013-03-13 17:12:00,73.0,40.0,30.06,NNE,14,6.0,10.0,30,99.99,,,-99.99,,2013-03-13 21:12:00,
2013-03-13 17:22:00,74.0,38.0,30.07,North,349,6.0,10.0,27,99.99,,,-99.99,,2013-03-13 21:22:00,
2013-03-13 17:33:00,74.0,40.0,30.06,North,357,6.0,9.0,29,99.99,,,-99.99,,2013-03-13 21:33:00,
2013-03-13 17:42:00,74.0,40.0,30.06,North,357,6.0,9.0,29,99.99,,,-99.99,,2013-03-13 21:42:00,
2013-03-13 17:52:00,74.0,39.0,30.06,NNW,346,3.0,5.0,28,99.99,,,-99.99,,2013-03-13 21:52:00,
2013-03-13 18:02:00,74.0,43.0,30.06,NNE,32,4.0,9.0,33,99.99,,,-99.99,,2013-03-13 22:02:00,
2013-03-13 18:12:00,74.0,43.0,30.06,NNE,32,4.0,9.0,33,99.99,,,-99.99,,2013-03-13 22:12:00,
2013-03-13 18:22:00,73.0,38.0,30.05,WNW,284,4.0,10.0,28,99.99,,,-99.99,,2013-03-13 22:22:00,
2013-03-13 18:32:00,74.0,38.0,30.06,WNW,287,5.0,8.0,27,99.99,,,-99.99,,2013-03-13 22:32:00,
2013-03-13 18:42:00,74.0,38.0,30.06,WNW,287,5.0,8.0,27,99.99,,,-99.99,,2013-03-13 22:42:00,
2013-03-13 18:52:00,74.0,40.0,30.06,WNW,287,3.0,6.0,29,99.99,,,-99.99,,2013-03-13 22:52:00,
2013-03-13 19:02:00,74.0,38.0,30.06,West,276,4.0,8.0,27,99.99,,,-99.99,,2013-03-13 23:02:00,
2013-03-13 19:12:00,74.0,38.0,30.06,West,276,4.0,8.0,27,99.99,,,-99.99,,2013-03-13 23:12:00,
2013-03-13 19:22:00,72.0,37.0,30.07,WNW,285,4.0,8.0,28,99.99,,,-99.99,,2013-03-13 23:22:00,
2013-03-13 19:32:00,72.0,41.0,30.06,West,281,2.0,6.0,33,99.99,,,-99.99,,2013-03-13 23:32:00,
2013-03-13 19:43:00,72.0,41.0,30.06,West,281,2.0,6.0,33,99.99,,,-99.99,,2013-03-13 23:43:00,
2013-03-13 19:52:00,70.0,41.0,30.06,WNW,301,1.0,3.0,35,99.99,,,-99.99,,2013-03-13 23:52:00,
2013-03-13 20:02:00,67.0,43.0,30.06,West,281,2.0,2.0,42,99.99,,,-99.99,,2013-03-14 00:02:00,
2013-03-13 20:13:00,65.0,43.0,30.07,West,280,2.0,3.0,44,99.99,,,-99.99,,2013-03-14 00:13:00,
2013-03-13 20:22:00,65.0,43.0,30.07,West,280,2.0,3.0,44,99.99,,,-99.99,,2013-03-14 00:22:00,
2013-03-13 20:32:00,63.0,43.0,30.08,West,274,2.0,3.0,48,99.99,,,-99.99,,2013-03-14 00:32:00,
2013-03-13 20:42:00,63.0,43.0,30.08,West,274,2.0,3.0,48,99.99,,,-99.99,,2013-03-14 00:42:00,
2013-03-13 20:52:00,62.0,44.0,30.08,West,271,3.0,6.0,52,99.99,,,-99.99,,2013-03-14 00:52:00,
2013-03-13 21:02:00,63.0,42.0,30.09,WNW,290,5.0,7.0,46,99.99,,,-99.99,,2013-03-14 01:02:00,
2013-03-13 21:12:00,63.0,42.0,30.09,WNW,290,5.0,7.0,46,99.99,,,-99.99,,2013-03-14 01:12:00,
2013-03-13 21:22:00,64.0,44.0,30.10,WNW,284,6.0,11.0,48,99.99,,,-99.99,,2013-03-14 01:22:00,
2013-03-13 21:32:00,62.0,45.0,30.11,West,269,4.0,7.0,54,99.99,,,-99.99,,2013-03-14 01:32:00,
2013-03-13 21:42:00,62.0,45.0,30.11,West,269,4.0,7.0,54,99.99,,,-99.99,,2013-03-14 01:42:00,
2013-03-13 21:52:00,62.0,45.0,30.12,WNW,293,4.0,6.0,54,99.99,,,-99.99,,2013-03-14 01:52:00,
2013-03-13 22:02:00,61.0,45.0,30.13,WNW,287,5.0,11.0,56,99.99,,,-99.99,,2013-03-14 02:02:00,
2013-03-13 22:12:00,61.0,45.0,30.13,WNW,287,5.0,11.0,56,99.99,,,-99.99,,2013-03-14 02:12:00,
2013-03-13 22:22:00,60.0,45.0,30.14,WNW,283,5.0,10.0,57,99.99,,,-99.99,,2013-03-14 02:22:00,
2013-03-13 22:32:00,60.0,45.0,30.14,WNW,287,5.0,9.0,58,99.99,,,-99.99,,2013-03-14 02:32:00,
2013-03-13 22:42:00,60.0,45.0,30.14,WNW,287,5.0,9.0,58,99.99,,,-99.99,,2013-03-14 02:42:00,
2013-03-13 22:52:00,60.0,45.0,30.14,WNW,287,5.0,9.0,58,99.99,,,-99.99,,2013-03-14 02:52:00,
2013-03-13 23:02:00,58.0,45.0,30.16,NNW,340,4.0,7.0,61,99.99,,,-99.99,,2013-03-14 03:02:00,
2013-03-13 23:12:00,58.0,45.0,30.16,NNW,340,4.0,7.0,61,99.99,,,-99.99,,2013-03-14 03:12:00,
2013-03-13 23:23:00,58.0,45.0,30.16,WNW,287,5.0,9.0,62,99.99,,,-99.99,,2013-03-14 03:23:00,
2013-03-13 23:32:00,58.0,45.0,30.16,WNW,287,5.0,9.0,62,99.99,,,-99.99,,2013-03-14 03:32:00,
2013-03-13 23:42:00,58.0,45.0,30.16,WNW,287,5.0,9.0,62,99.99,,,-99.99,,2013-03-14 03:42:00,
2013-03-13 23:52:00,57.0,46.0,30.17,North,1,3.0,6.0,67,99.99,,,-99.99,,2013-03-14 03:52:00,